Location: Hains Lake
(37.8540°N, 99.8578°W)
Time: 21:54:02
(UTC+00:00)

deb Explorer IX - Pass Details

Date: 26 April 2021
Orbit: 541 x 1098 km, 38.8° (Epoch: 13 May)

Event Time Altitude Azimuth Distance (km) Brightness Sun altitude
Rises 17:21:57 0° 270° (W) 2,914 ? 60.7°
Reaches altitude 10° 17:25:23 10° 242° (WSW) 2,112 ? 61.1°
Maximum altitude 17:27:39 13° 214° (SW) 1,979 ? 61.4°
Drops below altitude 10° 17:30:03 10° 187° (S) 2,270 ? 61.7°
Sets 17:34:02 0° 161° (SSE) 3,342 ? 62.1°
